Weather History for KAXA - March, 2014

Change the Weather History Date:

Friday, March 28, 2014

  Actual Average (KEST) Record (KEST)
Temperature  
Mean Temperature 32 °F 38 °F  
Max Temperature 35 °F 48 °F - ()
Min Temperature 30 °F 29 °F - ()
Degree Days  
Heating Degree Days 32 27  
Month to date heating degree days 922  
Since 1 July heating degree days 6837  
Cooling Degree Days 0 0  
Month to date cooling degree days 0  
Year to date cooling degree days 0  
Moisture  
Dew Point 28 °F    
Average Humidity 84    
Maximum Humidity 93    
Minimum Humidity 75    
Precipitation  
Precipitation 0.00 in 0.10 in - ()
Month to date precipitation 1.36  
Sea Level Pressure  
Sea Level Pressure 30.04 in    
Wind  
Wind Speed 14 mph (North)    
Max Wind Speed 22 mph    
Max Gust Speed 30 mph    
Visibility 10 miles    
Events      
T = Trace of Precipitation, MM = Missing Value Source: NWS Daily Summary

Daily Weather History Graph

Daily Weather History Graph

Search for Another Location

Airport or City:

Trip Planner

Search our weather history database for the weather conditions in past years. The results will help you decide how hot, cold, wet, or windy it might be!

Date:

Astronomy

Mar. 28, 2014 Rise Set
Actual Time 7:06 AM CDT 7:38 PM CDT
Civil Twilight 6:37 AM CDT 8:07 PM CDT
Nautical Twilight 6:03 AM CDT 8:41 PM CDT
Astronomical Twilight 5:29 AM CDT 9:16 PM CDT
Moon 5:41 AM CDT 5:33 PM CDT
Length of Visible Light 13h 29m
Length of Day
12h 32m
Waning Crescent, 6% of the Moon is Illuminated
Mar 28
Waning Crescent
Mar 30
New
Apr 7
First Quarter
Apr 15
Full
Apr 22
Last Quarter

Hourly Weather History & Observations

Time (CDT) Temp. Windchill Dew Point Humidity Pressure Visibility Wind Dir Wind Speed Gust Speed Precip Events Conditions
12:15 AM 32.0 °F 20.5 °F 30.2 °F 93% 29.74 in 10.0 mi NNW 18.4 mph 28.8 mph N/A   Overcast
12:35 AM 32.0 °F 20.5 °F 30.2 °F 93% 29.75 in 10.0 mi North 18.4 mph 29.9 mph N/A   Overcast
12:55 AM 32.0 °F 19.8 °F 30.2 °F 93% 29.76 in 10.0 mi North 20.7 mph 27.6 mph N/A   Overcast
1:15 AM 32.0 °F 20.5 °F 30.2 °F 93% 29.77 in 10.0 mi North 18.4 mph 27.6 mph N/A   Overcast
1:35 AM 32.0 °F 20.5 °F 30.2 °F 93% 29.78 in 10.0 mi North 18.4 mph 25.3 mph N/A   Overcast
1:55 AM 32.0 °F 20.1 °F 28.4 °F 87% 29.79 in 10.0 mi North 19.6 mph 27.6 mph N/A   Overcast
2:15 AM 32.0 °F 20.1 °F 28.4 °F 87% 29.80 in 10.0 mi North 19.6 mph 25.3 mph N/A   Overcast
2:35 AM 32.0 °F 19.8 °F 28.4 °F 87% 29.82 in 10.0 mi North 20.7 mph 26.5 mph N/A   Overcast
2:55 AM 32.0 °F 20.1 °F 28.4 °F 87% 29.84 in 10.0 mi North 19.6 mph 27.6 mph N/A   Overcast
3:15 AM 32.0 °F 19.5 °F 26.6 °F 80% 29.86 in 10.0 mi North 21.9 mph - N/A   Overcast
3:35 AM 32.0 °F 21.6 °F 28.4 °F 87% 29.87 in 10.0 mi North 15.0 mph - N/A   Overcast
3:55 AM 32.0 °F 22.1 °F 28.4 °F 87% 29.87 in 10.0 mi North 13.8 mph 19.6 mph N/A   Overcast
4:15 AM 32.0 °F 21.6 °F 28.4 °F 87% 29.87 in 10.0 mi North 15.0 mph - N/A   Overcast
4:35 AM 32.0 °F 22.5 °F 28.4 °F 87% 29.88 in 10.0 mi North 12.7 mph 19.6 mph N/A   Overcast
4:55 AM 32.0 °F 22.1 °F 28.4 °F 87% 29.89 in 10.0 mi North 13.8 mph 19.6 mph N/A   Overcast
5:15 AM 32.0 °F 22.5 °F 28.4 °F 87% 29.90 in 10.0 mi North 12.7 mph 20.7 mph N/A   Overcast
5:35 AM 32.0 °F 23.6 °F 28.4 °F 87% 29.91 in 10.0 mi North 10.4 mph 19.6 mph N/A   Overcast
5:55 AM 32.0 °F 23.0 °F 28.4 °F 87% 29.92 in 10.0 mi North 11.5 mph 18.4 mph N/A   Overcast
6:15 AM 32.0 °F 22.5 °F 26.6 °F 80% 29.92 in 10.0 mi North 12.7 mph 19.6 mph N/A   Overcast
6:35 AM 32.0 °F 22.1 °F 26.6 °F 80% 29.92 in 10.0 mi North 13.8 mph 26.5 mph N/A   Overcast
7:15 AM 32.0 °F 22.5 °F 26.6 °F 80% 29.99 in 10.0 mi NNW 12.7 mph - N/A   Overcast
7:35 AM 32.0 °F 22.5 °F 26.6 °F 80% 29.99 in 10.0 mi North 12.7 mph - N/A   Overcast
7:55 AM 32.0 °F 23.0 °F 26.6 °F 80% 29.99 in 10.0 mi NNE 11.5 mph - N/A   Overcast
8:15 AM 30.2 °F 20.2 °F 26.6 °F 86% 29.99 in 10.0 mi North 12.7 mph 18.4 mph N/A   Overcast
8:35 AM 30.2 °F 20.8 °F 24.8 °F 80% 30.00 in 10.0 mi North 11.5 mph 18.4 mph N/A   Overcast
8:55 AM 30.2 °F 20.8 °F 24.8 °F 80% 30.03 in 10.0 mi NNE 11.5 mph - N/A   Overcast
9:15 AM 30.2 °F 23.4 °F 24.8 °F 80% 30.05 in 10.0 mi North 6.9 mph - N/A   Overcast
9:35 AM 32.0 °F 23.6 °F 26.6 °F 80% 30.04 in 10.0 mi NNE 10.4 mph - N/A   Overcast
9:55 AM 32.0 °F 23.6 °F 26.6 °F 80% 30.03 in 10.0 mi North 10.4 mph - N/A   Overcast
10:15 AM 32.0 °F 22.5 °F 26.6 °F 80% 30.04 in 10.0 mi NNE 12.7 mph - N/A   Overcast
10:35 AM 32.0 °F 24.2 °F 26.6 °F 80% 30.06 in 10.0 mi NNE 9.2 mph - N/A   Overcast
10:55 AM 32.0 °F 24.2 °F 24.8 °F 75% 30.08 in 10.0 mi NNE 9.2 mph - N/A   Overcast
11:15 AM 32.0 °F 24.8 °F 24.8 °F 75% 30.08 in 10.0 mi NNE 8.1 mph - N/A   Overcast
11:35 AM 32.0 °F 23.0 °F 24.8 °F 75% 30.08 in 10.0 mi NE 11.5 mph - N/A   Overcast
11:55 AM 32.0 °F 23.6 °F 24.8 °F 75% 30.09 in 10.0 mi NE 10.4 mph - N/A   Overcast
12:15 PM 32.0 °F 23.6 °F 24.8 °F 75% 30.08 in 10.0 mi NE 10.4 mph - N/A   Overcast
12:35 PM 32.0 °F 23.6 °F 28.4 °F 87% 30.09 in 10.0 mi North 10.4 mph - N/A   Overcast
12:55 PM 32.0 °F 24.2 °F 28.4 °F 87% 30.08 in 10.0 mi North 9.2 mph 15.0 mph N/A   Overcast
1:15 PM 32.0 °F 23.6 °F 28.4 °F 87% 30.08 in 10.0 mi North 10.4 mph - N/A   Overcast
1:35 PM 32.0 °F 24.8 °F 28.4 °F 87% 30.10 in 10.0 mi North 8.1 mph - N/A   Overcast
1:55 PM 32.0 °F 24.2 °F 26.6 °F 80% 30.10 in 10.0 mi North 9.2 mph - N/A   Overcast
2:15 PM 32.0 °F 24.8 °F 26.6 °F 80% 30.11 in 10.0 mi NNW 8.1 mph - N/A   Overcast
2:35 PM 32.0 °F 24.8 °F 26.6 °F 80% 30.13 in 10.0 mi NNW 8.1 mph - N/A   Overcast
2:55 PM 32.0 °F 25.6 °F 26.6 °F 80% 30.14 in 10.0 mi NNW 6.9 mph - N/A   Overcast
3:15 PM 32.0 °F 25.6 °F 26.6 °F 80% 30.14 in 10.0 mi NNW 6.9 mph - N/A   Overcast
3:35 PM 32.0 °F 24.8 °F 26.6 °F 80% 30.14 in 10.0 mi NNW 8.1 mph - N/A   Overcast
3:55 PM 32.0 °F 25.6 °F 26.6 °F 80% 30.14 in 10.0 mi NNW 6.9 mph - N/A   Overcast
4:15 PM 32.0 °F 24.8 °F 26.6 °F 80% 30.13 in 10.0 mi NNW 8.1 mph - N/A   Overcast
4:35 PM 33.8 °F 27.0 °F 26.6 °F 75% 30.14 in 10.0 mi NNW 8.1 mph - N/A   Overcast
4:55 PM 33.8 °F 28.6 °F 26.6 °F 75% 30.14 in 10.0 mi North 5.8 mph - N/A   Overcast
5:15 PM 33.8 °F 27.7 °F 26.6 °F 75% 30.15 in 10.0 mi NNW 6.9 mph - N/A   Overcast
5:35 PM 33.8 °F 29.6 °F 26.6 °F 75% 30.14 in 10.0 mi North 4.6 mph - N/A   Mostly Cloudy
5:55 PM 33.8 °F 26.4 °F 28.4 °F 81% 30.14 in 10.0 mi North 9.2 mph - N/A   Mostly Cloudy
6:15 PM 35.6 °F 29.9 °F 28.4 °F 75% 30.14 in 10.0 mi NNE 6.9 mph - N/A   Mostly Cloudy
6:35 PM 35.6 °F 29.9 °F 28.4 °F 75% 30.15 in 10.0 mi North 6.9 mph - N/A   Overcast
6:55 PM 33.8 °F 27.0 °F 28.4 °F 81% 30.15 in 10.0 mi NNW 8.1 mph - N/A   Overcast
7:15 PM 33.8 °F 27.0 °F 28.4 °F 81% 30.15 in 10.0 mi NNW 8.1 mph - N/A   Overcast
7:35 PM 33.8 °F 25.8 °F 30.2 °F 87% 30.15 in 10.0 mi NNW 10.4 mph - N/A   Overcast
7:55 PM 32.0 °F 22.5 °F 30.2 °F 93% 30.16 in 10.0 mi NNW 12.7 mph 18.4 mph N/A   Overcast
8:15 PM 32.0 °F 23.6 °F 30.2 °F 93% 30.17 in 10.0 mi NNW 10.4 mph 17.3 mph N/A   Overcast
8:35 PM 32.0 °F 24.2 °F 30.2 °F 93% 30.17 in 10.0 mi NNW 9.2 mph 15.0 mph N/A   Overcast
8:55 PM 32.0 °F 23.6 °F 30.2 °F 93% 30.18 in 10.0 mi North 10.4 mph - N/A   Overcast
9:15 PM 32.0 °F 24.2 °F 30.2 °F 93% 30.20 in 10.0 mi North 9.2 mph - N/A   Overcast
9:35 PM 32.0 °F 24.8 °F 30.2 °F 93% 30.20 in 10.0 mi North 8.1 mph - N/A   Overcast
9:55 PM 32.0 °F 24.2 °F 28.4 °F 87% 30.21 in 10.0 mi North 9.2 mph - N/A   Overcast
10:15 PM 32.0 °F 24.2 °F 28.4 °F 87% 30.21 in 10.0 mi North 9.2 mph - N/A   Overcast
10:35 PM 32.0 °F 24.2 °F 28.4 °F 87% 30.22 in 10.0 mi North 9.2 mph 15.0 mph N/A   Overcast
10:55 PM 32.0 °F 25.6 °F 28.4 °F 87% 30.22 in 10.0 mi North 6.9 mph - N/A   Overcast
11:15 PM 32.0 °F 25.6 °F 28.4 °F 87% 30.22 in 10.0 mi North 6.9 mph - N/A   Overcast
11:35 PM 32.0 °F 24.8 °F 28.4 °F 87% 30.23 in 10.0 mi North 8.1 mph - N/A   Overcast
11:55 PM 32.0 °F 24.8 °F 28.4 °F 87% 30.23 in - North 8.1 mph - N/A   Overcast